Tracking 19905 objects as of 17-Oct-2019
HD Live streaming from Space Station
objects crossing your sky now

ARIANE 2 DEB

Track ARIANE 2 DEB now!


NORAD ID: 27593
Int'l Code: 1988-040C
Perigee: 491.4 km
Apogee: 35,397.9 km
Inclination: 7.2 °
Period: 628.9 minutes
Semi major axis: 24315 km
RCS: 13.4964 m2 (large)
Launch date: May 17, 1988
Source: France (FR)
Launch site: FRENCH GUIANA (FRGUI)

Note: This is SATELLITE DEBRIS
aabbcc
Your satellite tracking list
Your tracking list is empty




NASA's NSSDC Master Catalog

Two Line Element Set (TLE):
1 27593U 88040C   19289.80069492 -.00000032  00000-0  35110-3 0  9992
2 27593   7.2462 231.6860 7177774   8.2824 358.9253  2.28967140143966
Source of the keplerian elements: AFSPC